Regional Weather Roundup
Issued by NWS State College, PA

Home | Current Version | Previous Version | Text Only | Print | Product List | Glossary Off
Versions: 1 2 3 4 5 6 7 8 9 10 11 12 13 14 15 16 17 18 19 20 21 22 23 24 25 26 27 28 29 30 31 32 33 34 35 36 37 38 39 40 41 42 43 44 45 46 47 48 49 50

000
ASUS41 KCTP 281703
RWRCTP

REGIONAL WEATHER ROUNDUP
NATIONAL WEATHER SERVICE STATE COLLEGE PA
100 PM EDT TUE JUL 28 2015

Note: "fair" indicates few or no clouds below 12,000 feet with no
significant weather and/or obstructions to visibility.

* = STATION THAT DOES NOT REPORT PRECIPITATION /E.G. RAIN...SNOW...ETC/
    THUNDER OR FOG.

PAZ002>004-007>009-013>016-020>023-029>032-281800-
WESTERN PENNSYLVANIA

CITY           SKY/WX    TMP DP  RH WIND       PRES   REMARKS
ERIE           SUNNY     84  65  52 NW7       30.03F
MEADVILLE      LGT RAIN  85  55  35 VRB5      30.06F
FRANKLIN*      SUNNY     84  61  45 SE7       30.07F
NEW CASTLE     FAIR      88  62  41 CALM      30.04F
BEAVER COUNTY  MOSUNNY   86  63  45 E3        30.04F
BUTLER*        SUNNY     86  63  45 E9        30.06S
PITTSBURGH INT MOSUNNY   88  64  44 E7        30.02F
PITTSBURGH     PTSUNNY   84  63  49 VRB3      30.02F
INDIANA*       SUNNY     84  64  51 SE8       30.07F
LATROBE        MOSUNNY   84  68  58 NE7       30.04F
WASHINGTON CO* NOT AVBL
$$

PAZ004>006-010>012-017>019-024>028-033>037-041-042-045-046-049>053-281800-
CENTRAL PENNSYLVANIA

CITY           SKY/WX    TMP DP  RH WIND       PRES   REMARKS
BRADFORD       SUNNY     82  55  39 CALM      30.10F
DUBOIS         MOSUNNY   84  60  44 VRB3      30.06F
CLEARFIELD     SUNNY     84  60  44 CALM      30.07F
JOHNSTOWN      MOSUNNY   80  64  58 VRB7      30.09F
ALTOONA        SUNNY     83  66  56 VRB3      30.07F
STATE COLLEGE  MOSUNNY   82  66  57 CALM      30.06F
WILLIAMSPORT   MOSUNNY   87  59  38 W5        30.01F
SELINSGROVE    SUNNY     86  67  52 CALM      30.02F
FT INDIANTOWN  MOSUNNY   86  67  54 VRB2      30.01F
CAPITAL CITY   MOSUNNY   87  68  52 W3        30.01F
HARRISBURG     MOSUNNY   87  70  56 CALM      30.00F
YORK           MOSUNNY   83  72  69 CALM      30.02F
$$

PAZ038>040-043-044-047-048-054-055-060>062-067>071-281800-
EASTERN PENNSYLVANIA

CITY           SKY/WX    TMP DP  RH WIND       PRES   REMARKS
SCRANTON       SUNNY     86  64  47 W6        30.03F
MOUNT POCONO   MOSUNNY   82  59  45 E7        30.08F
ALLENTOWN      SUNNY     88  62  41 CALM      30.00F
QUAKERTOWN*    MOSUNNY   86  66  51 NE3       30.02S
READING        MOSUNNY   88  67  49 NW5       29.99F
LANCASTER      SUNNY     85  70  60 VRB3      30.01F
COATESVILLE    SUNNY     84  70  61 W3        30.03S
POTTSTOWN      SUNNY     84  68  58 VRB3      30.01F
BLUE BELL      MOSUNNY   86  72  62 CALM      29.99F
DOYLESTOWN     MOSUNNY   85  68  56 E3        29.99F
WILLOW GROVE   NOT AVBL
NORTH PHILA    MOSUNNY   90  65  43 CALM      29.99F
PHILADELPHIA   MOSUNNY   88  68  51 VRB5      29.99F
$$


USA.gov is the U.S. government's official web portal to all federal, state and local government web resources and services.